When you browse on this site, cookies collect data to enhance your experience and personalize the content and advertising you see.
Visit our Privacy Policy to learn more. By continuing to use the site, you agree to this use of cookies and data.
EN

Hourly Weather Akreshory

Today, 14 August, Friday

Time Temperature Precipitation Wind Pressure Humidity
00:00 +17°C° 0 mm 0 mps 705 mmHg 88%
01:00 +18°C° 0 mm 1 mps 705 mmHg 86%
02:00 +12°C° 0 mm 0 mps 705 mmHg 100%
03:00 +15°C° 0 mm 1 mps 705 mmHg 87%
04:00 +15°C° 0 mm 1 mps 704 mmHg 86%
05:00 +15°C° 0 mm 0 mps 704 mmHg 81%
06:00 +15°C° 0 mm 0 mps 704 mmHg 81%
07:00 +15°C° 0 mm 0 mps 705 mmHg 84%
08:00 +15°C° 0 mm 0 mps 705 mmHg 96%
09:00 +18°C° 0 mm 1 mps 705 mmHg 97%
10:00 +18°C° 0 mm 2 mps 706 mmHg 97%
11:00 +19°C° 0 mm 2 mps 706 mmHg 94%
12:00 +20°C° 0 mm 3 mps 706 mmHg 89%
13:00 +20°C° 0 mm 3 mps 706 mmHg 92%
14:00 +25°C° 0 mm 2 mps 706 mmHg 56%
15:00 +24°C° 0 mm 3 mps 705 mmHg 72%
16:00 +22°C° 0 mm 4 mps 705 mmHg 76%
17:00 +21°C° 0 mm 3 mps 705 mmHg 80%
18:00 +21°C° 0 mm 2 mps 705 mmHg 84%
19:00 +21°C° 0 mm 1 mps 705 mmHg 90%
20:00 +20°C° 0 mm 1 mps 705 mmHg 88%
21:00 +20°C° 0 mm 1 mps 705 mmHg 88%
22:00 +19°C° 0 mm 1 mps 705 mmHg 88%
23:00 +17°C° 0 mm 2 mps 705 mmHg 87%

Tomorrow, 15 August, Saturday

Time Temperature Precipitation Wind Pressure Humidity
00:00 +17°C° 0 mm 2 mps 705 mmHg 86%
01:00 +17°C° 0 mm 2 mps 705 mmHg 87%
02:00 +16°C° 0 mm 2 mps 704 mmHg 87%
03:00 +16°C° 0 mm 2 mps 704 mmHg 88%
04:00 +15°C° 0 mm 1 mps 704 mmHg 88%
05:00 +15°C° 0 mm 1 mps 704 mmHg 88%
06:00 +15°C° 0 mm 1 mps 703 mmHg 87%
07:00 +15°C° 0 mm 1 mps 703 mmHg 92%
08:00 +16°C° 0 mm 1 mps 703 mmHg 99%
09:00 +17°C° 0 mm 2 mps 704 mmHg 100%
10:00 +18°C° 0 mm 2 mps 704 mmHg 100%
11:00 +18°C° 0 mm 3 mps 704 mmHg 100%
12:00 +19°C° 0 mm 2 mps 704 mmHg 100%
13:00 +19°C° 0 mm 3 mps 704 mmHg 100%
14:00 +20°C° 0 mm 3 mps 704 mmHg 100%
15:00 +20°C° 0.7 mm 2 mps 704 mmHg 100%
16:00 +20°C° 2.8 mm 3 mps 703 mmHg 100%
17:00 +20°C° 1.1 mm 3 mps 703 mmHg 98%
18:00 +19°C° 4.4 mm 3 mps 703 mmHg 100%
19:00 +19°C° 0.6 mm 4 mps 702 mmHg 100%
20:00 +19°C° 0.2 mm 4 mps 703 mmHg 100%
21:00 +18°C° 0 mm 3 mps 703 mmHg 100%
22:00 +18°C° 0 mm 3 mps 703 mmHg 100%
23:00 +18°C° 0 mm 3 mps 703 mmHg 100%

Day after tomorrow, 16 August, Sunday

Time Temperature Precipitation Wind Pressure Humidity
00:00 +17°C° 0.1 mm 3 mps 703 mmHg 100%
01:00 +17°C° 0.3 mm 3 mps 702 mmHg 100%
02:00 +17°C° 0.2 mm 3 mps 702 mmHg 100%
03:00 +15°C° 0.1 mm 4 mps 702 mmHg 100%
04:00 +15°C° 0 mm 4 mps 702 mmHg 100%
05:00 +16°C° 0 mm 2 mps 702 mmHg 100%
06:00 +16°C° 0 mm 2 mps 702 mmHg 100%
07:00 +16°C° 0 mm 2 mps 703 mmHg 100%
08:00 +17°C° 0 mm 2 mps 703 mmHg 100%
09:00 +18°C° 0 mm 3 mps 704 mmHg 98%
10:00 +19°C° 0 mm 3 mps 705 mmHg 95%
11:00 +20°C° 0 mm 4 mps 705 mmHg 90%
12:00 +21°C° 0 mm 4 mps 706 mmHg 86%
13:00 +21°C° 0 mm 4 mps 706 mmHg 85%
14:00 +22°C° 0 mm 4 mps 705 mmHg 84%
15:00 +21°C° 0.3 mm 4 mps 705 mmHg 95%
16:00 +21°C° 0.5 mm 4 mps 705 mmHg 96%
17:00 +20°C° 0.1 mm 3 mps 705 mmHg 97%
18:00 +20°C° 0 mm 4 mps 705 mmHg 94%
19:00 +20°C° 0 mm 3 mps 705 mmHg 98%
20:00 +19°C° 0 mm 2 mps 705 mmHg 100%
21:00 +19°C° 0 mm 1 mps 705 mmHg 100%
22:00 +18°C° 0 mm 1 mps 705 mmHg 100%
23:00 +18°C° 0 mm 1 mps 705 mmHg 96%

17 August, Monday

Time Temperature Precipitation Wind Pressure Humidity
00:00 +18°C° 0 mm 1 mps 705 mmHg 92%
01:00 +16°C° 0 mm 1 mps 705 mmHg 89%
02:00 +16°C° 0 mm 1 mps 705 mmHg 90%
03:00 +16°C° 0 mm 1 mps 705 mmHg 90%
04:00 +16°C° 0 mm 1 mps 704 mmHg 89%
05:00 +16°C° 0 mm 1 mps 704 mmHg 88%
06:00 +16°C° 0 mm 1 mps 704 mmHg 87%
07:00 +16°C° 0 mm 0 mps 705 mmHg 88%
08:00 +18°C° 0 mm 1 mps 705 mmHg 96%
09:00 +20°C° 0 mm 1 mps 705 mmHg 96%
10:00 +21°C° 0 mm 1 mps 705 mmHg 97%
11:00 +21°C° 0 mm 2 mps 705 mmHg 96%
12:00 +23°C° 0 mm 2 mps 706 mmHg 90%
13:00 +24°C° 0 mm 3 mps 706 mmHg 80%
14:00 +25°C° 0 mm 3 mps 705 mmHg 79%
15:00 +25°C° 0 mm 2 mps 705 mmHg 81%
16:00 +24°C° 0 mm 2 mps 704 mmHg 82%
17:00 +24°C° 0 mm 3 mps 704 mmHg 84%
18:00 +22°C° 0 mm 3 mps 704 mmHg 90%
19:00 +21°C° 0 mm 2 mps 703 mmHg 97%
20:00 +21°C° 0 mm 1 mps 703 mmHg 95%
21:00 +21°C° 0 mm 1 mps 703 mmHg 88%
22:00 +21°C° 0 mm 1 mps 703 mmHg 86%
23:00 +21°C° 0 mm 1 mps 703 mmHg 84%

18 August, Tuesday

Time Temperature Precipitation Wind Pressure Humidity
00:00 +21°C° 0 mm 1 mps 703 mmHg 84%
01:00 +20°C° 0 mm 1 mps 702 mmHg 86%
02:00 +19°C° 0 mm 2 mps 702 mmHg 86%
03:00 +19°C° 0 mm 2 mps 702 mmHg 85%
04:00 +19°C° 0 mm 2 mps 702 mmHg 86%
05:00 +19°C° 0 mm 2 mps 702 mmHg 85%
06:00 +20°C° 0 mm 1 mps 702 mmHg 84%
07:00 +19°C° 0 mm 2 mps 702 mmHg 86%
08:00 +20°C° 0 mm 2 mps 702 mmHg 90%
09:00 +20°C° 0 mm 2 mps 702 mmHg 93%
10:00 +22°C° 0 mm 1 mps 703 mmHg 93%
11:00 +22°C° 0 mm 1 mps 703 mmHg 98%
12:00 +22°C° 0 mm 1 mps 703 mmHg 98%
13:00 +24°C° 0 mm 1 mps 702 mmHg 92%
14:00 +24°C° 0.1 mm 1 mps 702 mmHg 91%
15:00 +25°C° 0 mm 1 mps 702 mmHg 90%
16:00 +25°C° 0 mm 1 mps 701 mmHg 92%
17:00 +25°C° 0.1 mm 2 mps 701 mmHg 93%
18:00 +24°C° 0 mm 2 mps 701 mmHg 94%
19:00 +24°C° 0 mm 1 mps 700 mmHg 97%
20:00 +21°C° 0 mm 0 mps 701 mmHg 100%
21:00 +20°C° 0 mm 0 mps 700 mmHg 96%
22:00 +21°C° 0 mm 2 mps 700 mmHg 92%
23:00 +21°C° 0 mm 2 mps 700 mmHg 87%

19 August, Wednesday

Time Temperature Precipitation Wind Pressure Humidity
00:00 +21°C° 0 mm 2 mps 700 mmHg 87%
01:00 +22°C° 0 mm 1 mps 700 mmHg 88%
02:00 +20°C° 0 mm 2 mps 700 mmHg 86%
03:00 +20°C° 0 mm 3 mps 700 mmHg 89%
04:00 +19°C° 0 mm 3 mps 700 mmHg 93%
05:00 +19°C° 0 mm 2 mps 700 mmHg 93%
06:00 +19°C° 0 mm 2 mps 700 mmHg 94%
07:00 +20°C° 0 mm 1 mps 700 mmHg 100%
08:00 +20°C° 0 mm 1 mps 700 mmHg 100%
09:00 +21°C° 0 mm 1 mps 700 mmHg 100%
10:00 +22°C° 0 mm 1 mps 700 mmHg 100%
11:00 +21°C° 0 mm 2 mps 700 mmHg 100%
12:00 +23°C° 0 mm 2 mps 700 mmHg 98%
13:00 +24°C° 0.5 mm 2 mps 699 mmHg 97%
14:00 +24°C° 0 mm 1 mps 699 mmHg 94%
15:00 +21°C° 2.5 mm 6 mps 699 mmHg 100%
16:00 +22°C° 1.9 mm 3 mps 699 mmHg 90%
17:00 +21°C° 1.3 mm 2 mps 699 mmHg 98%
18:00 +20°C° 0.4 mm 4 mps 698 mmHg 98%
19:00 +20°C° 0 mm 2 mps 698 mmHg 96%
20:00 +22°C° 0 mm 1 mps 699 mmHg 91%
21:00 +21°C° 0 mm 1 mps 698 mmHg 92%
22:00 +19°C° 0.1 mm 2 mps 698 mmHg 97%
23:00 +18°C° 1.6 mm 3 mps 698 mmHg 100%
Show more